Time,TemperatureF,DewpointF,PressureIn,WindDirection,WindDirectionDegrees,WindSpeedMPH,WindSpeedGustMPH,Humidity,HourlyPrecipIn,Conditions,Clouds,dailyrainin,SoftwareType,DateUTC
2013-03-16 00:00:00,57.0,41.0,29.98,SSW,196,2.0,5.0,55,0.00,,---,0.00,VWS V14.01,2013-03-16 04:00:00,
2013-03-16 00:02:00,57.0,41.0,29.98,SSW,194,0.0,5.0,55,0.00,,---,0.00,VWS V14.01,2013-03-16 04:02:00,
2013-03-16 00:05:00,57.0,41.0,29.98,South,188,0.0,5.0,55,0.00,,---,0.00,VWS V14.01,2013-03-16 04:05:00,
2013-03-16 00:10:00,57.0,41.0,29.98,SSW,202,2.0,6.0,55,0.00,,---,0.00,VWS V14.01,2013-03-16 04:10:00,
2013-03-16 00:15:00,57.0,41.0,29.98,SSW,213,4.0,6.0,55,0.00,,---,0.00,VWS V14.01,2013-03-16 04:15:00,
2013-03-16 00:20:00,57.1,41.1,29.97,South,182,0.0,5.0,55,0.00,,---,0.00,VWS V14.01,2013-03-16 04:20:00,
2013-03-16 00:26:00,57.2,41.2,29.98,West,261,2.0,6.0,55,0.00,,---,0.00,VWS V14.01,2013-03-16 04:26:00,
2013-03-16 00:31:00,57.3,41.3,29.97,SSW,209,1.0,3.0,55,0.00,,---,0.00,VWS V14.01,2013-03-16 04:31:00,
2013-03-16 00:36:00,57.2,41.2,29.97,WSW,246,0.0,6.0,55,0.00,,---,0.00,VWS V14.01,2013-03-16 04:36:00,
2013-03-16 00:41:00,57.2,41.2,29.97,SW,219,1.0,6.0,55,0.00,,---,0.00,VWS V14.01,2013-03-16 04:41:00,
2013-03-16 00:46:00,57.2,41.2,29.97,SSW,213,1.0,4.0,55,0.00,,---,0.00,VWS V14.01,2013-03-16 04:46:00,
2013-03-16 00:52:00,57.2,41.2,29.97,WSW,240,2.0,5.0,55,0.00,,---,0.00,VWS V14.01,2013-03-16 04:52:00,
2013-03-16 00:57:00,57.2,41.2,29.97,South,180,4.0,6.0,55,0.00,,---,0.00,VWS V14.01,2013-03-16 04:57:00,
2013-03-16 01:02:00,57.1,41.1,29.97,SW,218,2.0,3.0,55,0.00,,---,0.00,VWS V14.01,2013-03-16 05:02:00,
2013-03-16 01:07:00,57.1,41.1,29.96,South,178,3.0,7.0,55,0.00,,---,0.00,VWS V14.01,2013-03-16 05:07:00,
2013-03-16 01:12:00,57.1,41.1,29.96,SSW,205,1.0,14.0,55,0.00,,---,0.00,VWS V14.01,2013-03-16 05:12:00,
2013-03-16 01:18:00,57.0,41.0,29.96,South,184,3.0,7.0,55,0.00,,---,0.00,VWS V14.01,2013-03-16 05:18:00,
2013-03-16 01:23:00,56.9,41.4,29.96,WSW,254,4.0,7.0,56,0.00,,---,0.00,VWS V14.01,2013-03-16 05:23:00,
2013-03-16 01:28:00,56.7,41.2,29.96,SSW,194,0.0,7.0,56,0.00,,---,0.00,VWS V14.01,2013-03-16 05:28:00,
2013-03-16 01:33:00,56.5,41.0,29.95,SSE,150,0.0,4.0,56,0.00,,---,0.00,VWS V14.01,2013-03-16 05:33:00,
2013-03-16 01:38:00,56.3,40.8,29.95,SW,229,1.0,7.0,56,0.00,,---,0.00,VWS V14.01,2013-03-16 05:38:00,
2013-03-16 01:44:00,56.3,40.8,29.94,SW,215,2.0,7.0,56,0.00,,---,0.00,VWS V14.01,2013-03-16 05:44:00,
2013-03-16 01:49:00,56.3,40.8,29.94,South,181,0.0,6.0,56,0.00,,---,0.00,VWS V14.01,2013-03-16 05:49:00,
2013-03-16 01:54:00,56.3,41.3,29.94,SSE,159,0.0,6.0,57,0.00,,---,0.00,VWS V14.01,2013-03-16 05:54:00,
2013-03-16 02:00:00,56.1,41.1,29.94,SSE,157,1.0,6.0,57,0.00,,---,0.00,VWS V14.01,2013-03-16 06:00:00,
2013-03-16 02:05:00,56.1,41.1,29.94,SW,228,0.0,9.0,57,0.00,,---,0.00,VWS V14.01,2013-03-16 06:05:00,
2013-03-16 02:10:00,56.2,41.2,29.94,NW,309,0.0,9.0,57,0.00,,---,0.00,VWS V14.01,2013-03-16 06:10:00,
2013-03-16 02:15:00,56.1,41.1,29.94,WSW,254,1.0,9.0,57,0.00,,---,0.00,VWS V14.01,2013-03-16 06:15:00,
2013-03-16 02:22:00,56.0,41.5,29.94,SSW,200,4.0,5.0,58,0.00,,---,0.00,VWS V14.01,2013-03-16 06:22:00,
2013-03-16 02:27:00,55.9,41.3,29.94,SSW,193,1.0,7.0,58,0.00,,---,0.00,VWS V14.01,2013-03-16 06:27:00,
2013-03-16 02:32:00,55.9,41.3,29.94,SW,218,2.0,5.0,58,0.00,,---,0.00,VWS V14.01,2013-03-16 06:32:00,
2013-03-16 02:37:00,55.9,41.3,29.94,SSW,207,2.0,6.0,58,0.00,,---,0.00,VWS V14.01,2013-03-16 06:37:00,
2013-03-16 02:42:00,55.9,41.3,29.94,West,259,2.0,6.0,58,0.00,,---,0.00,VWS V14.01,2013-03-16 06:42:00,
2013-03-16 02:47:00,55.8,41.7,29.94,NNW,331,1.0,3.0,59,0.00,,---,0.00,VWS V14.01,2013-03-16 06:47:00,
2013-03-16 02:52:00,55.7,41.6,29.94,West,269,0.0,5.0,59,0.00,,---,0.00,VWS V14.01,2013-03-16 06:52:00,
2013-03-16 02:58:00,55.5,41.9,29.94,WNW,284,3.0,6.0,60,0.00,,---,0.00,VWS V14.01,2013-03-16 06:58:00,
2013-03-16 03:03:00,55.5,41.9,29.94,West,268,0.0,4.0,60,0.00,,---,0.00,VWS V14.01,2013-03-16 07:03:00,
2013-03-16 03:08:00,55.5,41.9,29.94,SSW,213,0.0,4.0,60,0.00,,---,0.00,VWS V14.01,2013-03-16 07:08:00,
2013-03-16 03:13:00,55.6,42.0,29.94,SSW,192,1.0,4.0,60,0.00,,---,0.00,VWS V14.01,2013-03-16 07:13:00,
2013-03-16 03:18:00,55.5,41.9,29.93,South,177,0.0,5.0,60,0.00,,---,0.00,VWS V14.01,2013-03-16 07:18:00,
2013-03-16 03:24:00,55.6,42.0,29.93,WSW,254,1.0,8.0,60,0.00,,---,0.00,VWS V14.01,2013-03-16 07:24:00,
2013-03-16 03:29:00,55.7,42.0,29.93,WSW,242,2.0,8.0,60,0.00,,---,0.00,VWS V14.01,2013-03-16 07:29:00,
2013-03-16 03:34:00,55.9,42.7,29.93,SSW,198,1.0,5.0,61,0.00,,---,0.00,VWS V14.01,2013-03-16 07:34:00,
2013-03-16 03:39:00,56.1,42.8,29.93,SSW,209,2.0,5.0,61,0.00,,---,0.00,VWS V14.01,2013-03-16 07:39:00,
2013-03-16 03:44:00,56.2,43.0,29.93,SE,140,0.0,5.0,61,0.00,,---,0.00,VWS V14.01,2013-03-16 07:44:00,
2013-03-16 03:49:00,56.3,42.6,29.93,WNW,282,2.0,5.0,60,0.00,,---,0.00,VWS V14.01,2013-03-16 07:49:00,
2013-03-16 03:55:00,56.5,42.8,29.93,SSW,193,0.0,5.0,60,0.00,,---,0.00,VWS V14.01,2013-03-16 07:55:00,
2013-03-16 04:00:00,56.8,43.1,29.92,WSW,253,0.0,8.0,60,0.00,,---,0.00,VWS V14.01,2013-03-16 08:00:00,
2013-03-16 04:05:00,57.2,43.5,29.92,SSW,205,3.0,8.0,60,0.00,,---,0.00,VWS V14.01,2013-03-16 08:05:00,
2013-03-16 04:10:00,57.4,43.2,29.92,South,190,1.0,8.0,59,0.00,,---,0.00,VWS V14.01,2013-03-16 08:10:00,
2013-03-16 04:15:00,57.6,43.4,29.92,SW,223,6.0,8.0,59,0.00,,---,0.00,VWS V14.01,2013-03-16 08:15:00,
2013-03-16 04:21:00,57.8,43.6,29.92,SW,219,0.0,6.0,59,0.00,,---,0.00,VWS V14.01,2013-03-16 08:21:00,
2013-03-16 04:26:00,57.9,43.7,29.92,NW,305,1.0,10.0,59,0.00,,---,0.00,VWS V14.01,2013-03-16 08:26:00,
2013-03-16 04:31:00,58.0,43.3,29.92,SSW,202,2.0,6.0,58,0.00,,---,0.00,VWS V14.01,2013-03-16 08:31:00,
2013-03-16 04:37:00,58.1,43.4,29.92,WSW,250,4.0,8.0,58,0.00,,---,0.00,VWS V14.01,2013-03-16 08:37:00,
2013-03-16 04:42:00,58.2,43.5,29.92,West,261,3.0,8.0,58,0.00,,---,0.00,VWS V14.01,2013-03-16 08:42:00,
2013-03-16 04:47:00,58.1,43.4,29.92,WNW,288,4.0,7.0,58,0.00,,---,0.00,VWS V14.01,2013-03-16 08:47:00,
2013-03-16 04:52:00,58.1,43.4,29.92,West,281,2.0,8.0,58,0.00,,---,0.00,VWS V14.01,2013-03-16 08:52:00,
2013-03-16 04:57:00,58.1,43.4,29.92,WSW,257,3.0,8.0,58,0.00,,---,0.00,VWS V14.01,2013-03-16 08:57:00,
2013-03-16 05:03:00,58.0,43.8,29.92,NW,325,3.0,8.0,59,0.00,,---,0.00,VWS V14.01,2013-03-16 09:03:00,
2013-03-16 05:08:00,58.0,43.8,29.92,SSE,152,2.0,8.0,59,0.00,,---,0.00,VWS V14.01,2013-03-16 09:08:00,
2013-03-16 05:13:00,57.9,43.7,29.92,NW,320,0.0,8.0,59,0.00,,---,0.00,VWS V14.01,2013-03-16 09:13:00,
2013-03-16 05:18:00,57.8,43.6,29.92,SW,226,3.0,6.0,59,0.00,,---,0.00,VWS V14.01,2013-03-16 09:18:00,
2013-03-16 05:23:00,57.8,43.6,29.92,West,267,3.0,6.0,59,0.00,,---,0.00,VWS V14.01,2013-03-16 09:23:00,
2013-03-16 05:29:00,57.7,43.5,29.92,WSW,257,1.0,6.0,59,0.00,,---,0.00,VWS V14.01,2013-03-16 09:29:00,
2013-03-16 05:34:00,57.5,43.7,29.92,South,189,2.0,7.0,60,0.00,,---,0.00,VWS V14.01,2013-03-16 09:34:00,
2013-03-16 05:39:00,57.4,43.6,29.92,SSW,198,0.0,7.0,60,0.00,,---,0.00,VWS V14.01,2013-03-16 09:39:00,
2013-03-16 05:44:00,57.5,43.7,29.92,WSW,246,1.0,7.0,60,0.00,,---,0.00,VWS V14.01,2013-03-16 09:44:00,
2013-03-16 05:49:00,57.5,43.7,29.92,SSE,159,1.0,10.0,60,0.00,,---,0.00,VWS V14.01,2013-03-16 09:49:00,
2013-03-16 05:55:00,57.6,43.8,29.92,WNW,293,0.0,12.0,60,0.00,,---,0.00,VWS V14.01,2013-03-16 09:55:00,
2013-03-16 06:00:00,57.6,43.8,29.92,WSW,243,6.0,12.0,60,0.00,,---,0.00,VWS V14.01,2013-03-16 10:00:00,
2013-03-16 06:05:00,57.6,43.8,29.91,SSW,205,0.0,5.0,60,0.00,,---,0.00,VWS V14.01,2013-03-16 10:05:00,
2013-03-16 06:10:00,57.6,43.8,29.92,SW,215,3.0,7.0,60,0.00,,---,0.00,VWS V14.01,2013-03-16 10:10:00,
2013-03-16 06:15:00,57.6,43.8,29.92,SE,144,0.0,7.0,60,0.00,,---,0.00,VWS V14.01,2013-03-16 10:15:00,
2013-03-16 06:20:00,57.6,43.8,29.92,South,184,0.0,4.0,60,0.00,,---,0.00,VWS V14.01,2013-03-16 10:20:00,
2013-03-16 06:26:00,57.6,43.8,29.92,West,273,0.0,8.0,60,0.00,,---,0.00,VWS V14.01,2013-03-16 10:26:00,
2013-03-16 06:31:00,57.6,43.8,29.92,SSE,161,3.0,6.0,60,0.00,,---,0.00,VWS V14.01,2013-03-16 10:31:00,
2013-03-16 06:36:00,57.7,43.9,29.92,SW,228,2.0,9.0,60,0.00,,---,0.00,VWS V14.01,2013-03-16 10:36:00,
2013-03-16 06:41:00,57.8,44.0,29.92,NNW,330,0.0,9.0,60,0.00,,---,0.00,VWS V14.01,2013-03-16 10:41:00,
2013-03-16 06:46:00,57.8,44.0,29.92,SW,236,2.0,2.0,60,0.00,,---,0.00,VWS V14.01,2013-03-16 10:46:00,
2013-03-16 06:52:00,57.8,44.0,29.92,East,101,0.0,8.0,60,0.00,,---,0.00,VWS V14.01,2013-03-16 10:52:00,
2013-03-16 06:57:00,57.8,44.0,29.92,SW,232,2.0,8.0,60,0.00,,---,0.00,VWS V14.01,2013-03-16 10:57:00,
2013-03-16 07:02:00,57.8,44.0,29.92,WSW,237,3.0,4.0,60,0.00,,---,0.00,VWS V14.01,2013-03-16 11:02:00,
2013-03-16 07:07:00,57.8,44.0,29.92,NW,306,3.0,9.0,60,0.00,,---,0.00,VWS V14.01,2013-03-16 11:07:00,
2013-03-16 07:12:00,57.8,44.0,29.93,WNW,297,2.0,9.0,60,0.00,,---,0.00,VWS V14.01,2013-03-16 11:12:00,
2013-03-16 07:17:00,58.0,44.2,29.93,NW,315,2.0,4.0,60,0.00,,---,0.00,VWS V14.01,2013-03-16 11:17:00,
2013-03-16 07:23:00,58.0,44.2,29.93,WNW,300,1.0,10.0,60,0.00,,---,0.00,VWS V14.01,2013-03-16 11:23:00,
2013-03-16 07:28:00,58.1,43.9,29.93,SSW,196,5.0,16.0,59,0.00,,---,0.00,VWS V14.01,2013-03-16 11:28:00,
2013-03-16 07:33:00,58.1,43.9,29.93,WNW,301,3.0,7.0,59,0.00,,---,0.00,VWS V14.01,2013-03-16 11:33:00,
2013-03-16 07:38:00,58.1,43.9,29.93,NW,326,1.0,7.0,59,0.00,,---,0.00,VWS V14.01,2013-03-16 11:38:00,
2013-03-16 07:43:00,58.0,44.2,29.93,West,268,2.0,7.0,60,0.00,,---,0.00,VWS V14.01,2013-03-16 11:43:00,
2013-03-16 07:48:00,58.0,44.2,29.93,West,266,0.0,7.0,60,0.00,,---,0.00,VWS V14.01,2013-03-16 11:48:00,
2013-03-16 07:54:00,57.9,44.1,29.93,West,261,1.0,8.0,60,0.00,,---,0.00,VWS V14.01,2013-03-16 11:54:00,
2013-03-16 07:59:00,57.9,44.1,29.93,NW,321,3.0,8.0,60,0.00,,---,0.00,VWS V14.01,2013-03-16 11:59:00,
2013-03-16 08:04:00,57.9,44.1,29.93,SW,221,2.0,6.0,60,0.00,,---,0.00,VWS V14.01,2013-03-16 12:04:00,
2013-03-16 08:09:00,58.0,44.2,29.93,South,171,2.0,7.0,60,0.00,,---,0.00,VWS V14.01,2013-03-16 12:09:00,
2013-03-16 08:14:00,58.1,44.3,29.93,WNW,302,4.0,10.0,60,0.00,,---,0.00,VWS V14.01,2013-03-16 12:14:00,
2013-03-16 08:19:00,58.2,44.0,29.93,West,276,2.0,10.0,59,0.00,,---,0.00,VWS V14.01,2013-03-16 12:19:00,
2013-03-16 08:24:00,58.3,44.5,29.93,WNW,288,2.0,10.0,60,0.00,,---,0.00,VWS V14.01,2013-03-16 12:24:00,
2013-03-16 08:30:00,58.5,44.7,29.93,West,263,7.0,10.0,60,0.00,,---,0.00,VWS V14.01,2013-03-16 12:30:00,
2013-03-16 08:35:00,58.6,44.3,29.93,WSW,238,13.0,13.0,59,0.00,,---,0.00,VWS V14.01,2013-03-16 12:35:00,
2013-03-16 08:40:00,58.9,44.6,29.93,WNW,284,0.0,13.0,59,0.00,,---,0.00,VWS V14.01,2013-03-16 12:40:00,
2013-03-16 08:45:00,59.3,45.0,29.93,NNW,327,1.0,13.0,59,0.00,,---,0.00,VWS V14.01,2013-03-16 12:45:00,
2013-03-16 08:50:00,59.8,45.0,29.93,South,173,2.0,9.0,58,0.00,,---,0.00,VWS V14.01,2013-03-16 12:50:00,
2013-03-16 08:55:00,60.5,45.2,29.93,SSW,198,4.0,10.0,57,0.00,,---,0.00,VWS V14.01,2013-03-16 12:55:00,
2013-03-16 09:01:00,60.9,45.6,29.93,West,263,3.0,10.0,57,0.00,,---,0.00,VWS V14.01,2013-03-16 13:01:00,
2013-03-16 09:06:00,61.2,45.9,29.93,ESE,108,7.0,10.0,57,0.00,,---,0.00,VWS V14.01,2013-03-16 13:06:00,
2013-03-16 09:12:00,61.3,45.5,29.93,SW,235,8.0,10.0,56,0.00,,---,0.00,VWS V14.01,2013-03-16 13:12:00,
2013-03-16 09:17:00,61.4,45.6,29.93,NNE,15,2.0,11.0,56,0.00,,---,0.00,VWS V14.01,2013-03-16 13:17:00,
2013-03-16 09:22:00,61.4,45.1,29.93,WNW,302,1.0,11.0,55,0.00,,---,0.00,VWS V14.01,2013-03-16 13:22:00,
2013-03-16 09:28:00,61.6,45.8,29.93,ESE,115,1.0,13.0,56,0.00,,---,0.00,VWS V14.01,2013-03-16 13:28:00,
2013-03-16 09:33:00,62.3,46.0,29.93,WNW,291,6.0,9.0,55,0.00,,---,0.00,VWS V14.01,2013-03-16 13:33:00,
2013-03-16 09:38:00,62.6,45.7,29.93,West,262,7.0,12.0,54,0.00,,---,0.00,VWS V14.01,2013-03-16 13:38:00,
2013-03-16 09:43:00,63.0,46.1,29.93,WNW,284,5.0,16.0,54,0.00,,---,0.00,VWS V14.01,2013-03-16 13:43:00,
2013-03-16 09:48:00,63.3,45.4,29.92,West,269,8.0,13.0,52,0.00,,---,0.00,VWS V14.01,2013-03-16 13:48:00,
2013-03-16 09:53:00,63.9,46.0,29.92,WSW,258,3.0,13.0,52,0.00,,---,0.00,VWS V14.01,2013-03-16 13:53:00,
2013-03-16 09:59:00,64.0,46.0,29.92,West,278,8.0,14.0,52,0.00,,---,0.00,VWS V14.01,2013-03-16 13:59:00,
2013-03-16 10:04:00,64.4,46.4,29.92,NW,310,5.0,13.0,52,0.00,,---,0.00,VWS V14.01,2013-03-16 14:04:00,
2013-03-16 10:09:00,64.8,46.8,29.92,WNW,294,2.0,14.0,52,0.00,,---,0.00,VWS V14.01,2013-03-16 14:09:00,
2013-03-16 10:14:00,65.1,47.1,29.92,SW,231,6.0,14.0,52,0.00,,---,0.00,VWS V14.01,2013-03-16 14:14:00,
2013-03-16 10:20:00,65.3,46.2,29.91,West,271,5.0,9.0,50,0.00,,---,0.00,VWS V14.01,2013-03-16 14:20:00,
2013-03-16 10:25:00,65.9,47.8,29.91,WSW,240,4.0,12.0,52,0.00,,---,0.00,VWS V14.01,2013-03-16 14:25:00,
2013-03-16 10:30:00,66.2,46.5,29.91,SSE,150,3.0,12.0,49,0.00,,---,0.00,VWS V14.01,2013-03-16 14:30:00,
2013-03-16 10:36:00,65.0,45.9,29.91,North,355,5.0,9.0,50,0.00,,---,0.00,VWS V14.01,2013-03-16 14:36:00,
2013-03-16 10:42:00,64.8,46.3,29.91,South,184,4.0,11.0,51,0.00,,---,0.00,VWS V14.01,2013-03-16 14:42:00,
2013-03-16 10:47:00,65.0,47.0,29.91,South,175,3.0,5.0,52,0.00,,---,0.00,VWS V14.01,2013-03-16 14:47:00,
2013-03-16 10:52:00,64.7,46.7,29.91,South,173,5.0,9.0,52,0.00,,---,0.00,VWS V14.01,2013-03-16 14:52:00,
2013-03-16 10:57:00,64.5,46.5,29.91,WSW,238,6.0,12.0,52,0.00,,---,0.00,VWS V14.01,2013-03-16 14:57:00,
2013-03-16 11:03:00,64.4,45.9,29.91,West,265,6.0,7.0,51,0.00,,---,0.00,VWS V14.01,2013-03-16 15:03:00,
2013-03-16 11:08:00,64.7,46.2,29.90,NW,305,3.0,12.0,51,0.00,,---,0.00,VWS V14.01,2013-03-16 15:08:00,
2013-03-16 11:13:00,64.9,46.4,29.90,WSW,257,6.0,14.0,51,0.00,,---,0.00,VWS V14.01,2013-03-16 15:13:00,
2013-03-16 11:18:00,65.4,46.8,29.90,East,89,7.0,10.0,51,0.00,,---,0.00,VWS V14.01,2013-03-16 15:18:00,
2013-03-16 11:23:00,66.0,47.4,29.90,West,266,3.0,13.0,51,0.00,,---,0.00,VWS V14.01,2013-03-16 15:23:00,
2013-03-16 11:28:00,66.3,47.1,29.90,South,169,9.0,13.0,50,0.00,,---,0.00,VWS V14.01,2013-03-16 15:28:00,
2013-03-16 11:34:00,66.3,46.6,29.90,South,186,2.0,6.0,49,0.00,,---,0.00,VWS V14.01,2013-03-16 15:34:00,
2013-03-16 11:39:00,66.8,47.0,29.90,WNW,296,5.0,9.0,49,0.00,,---,0.00,VWS V14.01,2013-03-16 15:39:00,
2013-03-16 11:44:00,68.0,47.0,29.90,SSW,192,6.0,10.0,47,0.00,,---,0.00,VWS V14.01,2013-03-16 15:44:00,
2013-03-16 11:49:00,69.4,50.0,29.89,NW,318,3.0,7.0,50,0.00,,---,0.00,VWS V14.01,2013-03-16 15:49:00,
2013-03-16 11:54:00,70.4,47.5,29.89,West,281,6.0,14.0,44,0.00,,---,0.00,VWS V14.01,2013-03-16 15:54:00,
2013-03-16 12:00:00,70.9,47.9,29.89,South,169,9.0,14.0,44,0.00,,---,0.00,VWS V14.01,2013-03-16 16:00:00,
2013-03-16 12:05:00,70.7,48.3,29.89,WNW,290,8.0,9.0,45,0.00,,---,0.00,VWS V14.01,2013-03-16 16:05:00,
2013-03-16 12:10:00,70.9,47.9,29.89,NNW,329,2.0,11.0,44,0.00,,---,0.00,VWS V14.01,2013-03-16 16:10:00,
2013-03-16 12:16:00,71.5,48.5,29.89,NW,306,10.0,13.0,44,0.00,,---,0.00,VWS V14.01,2013-03-16 16:16:00,
2013-03-16 12:21:00,72.1,48.4,29.88,West,266,3.0,11.0,43,0.00,,---,0.00,VWS V14.01,2013-03-16 16:21:00,
2013-03-16 12:26:00,72.2,48.5,29.88,SSW,192,1.0,12.0,43,0.00,,---,0.00,VWS V14.01,2013-03-16 16:26:00,
2013-03-16 12:31:00,72.4,48.0,29.88,NW,315,4.0,11.0,42,0.00,,---,0.00,VWS V14.01,2013-03-16 16:31:00,
2013-03-16 12:36:00,72.1,48.4,29.87,NNW,342,3.0,13.0,43,0.00,,---,0.00,VWS V14.01,2013-03-16 16:36:00,
2013-03-16 12:42:00,72.0,47.7,29.87,WNW,291,7.0,13.0,42,0.00,,---,0.00,VWS V14.01,2013-03-16 16:42:00,
2013-03-16 12:47:00,72.2,48.5,29.87,WNW,293,6.0,11.0,43,0.00,,---,0.00,VWS V14.01,2013-03-16 16:47:00,
2013-03-16 12:52:00,72.8,48.4,29.86,West,262,8.0,12.0,42,0.00,,---,0.00,VWS V14.01,2013-03-16 16:52:00,
2013-03-16 12:57:00,73.0,48.6,29.86,WSW,252,6.0,16.0,42,0.00,,---,0.00,VWS V14.01,2013-03-16 16:57:00,
2013-03-16 13:03:00,73.6,48.5,29.86,WNW,289,11.0,13.0,41,0.00,,---,0.00,VWS V14.01,2013-03-16 17:03:00,
2013-03-16 13:08:00,73.2,48.1,29.86,WNW,291,9.0,14.0,41,0.00,,---,0.00,VWS V14.01,2013-03-16 17:08:00,
2013-03-16 13:13:00,73.5,49.0,29.86,SSW,204,3.0,14.0,42,0.00,,---,0.00,VWS V14.01,2013-03-16 17:13:00,
2013-03-16 13:19:00,73.5,47.7,29.86,West,275,3.0,15.0,40,0.00,,---,0.00,VWS V14.01,2013-03-16 17:19:00,
2013-03-16 13:24:00,74.1,48.9,29.86,SSE,163,4.0,18.0,41,0.00,,---,0.00,VWS V14.01,2013-03-16 17:24:00,
2013-03-16 13:29:00,74.6,48.7,29.86,WNW,293,8.0,18.0,40,0.00,,---,0.00,VWS V14.01,2013-03-16 17:29:00,
2013-03-16 13:35:00,74.9,49.0,29.86,WNW,292,6.0,11.0,40,0.00,,---,0.00,VWS V14.01,2013-03-16 17:35:00,
2013-03-16 13:40:00,74.7,49.5,29.85,West,278,12.0,12.0,41,0.00,,---,0.00,VWS V14.01,2013-03-16 17:40:00,
2013-03-16 13:45:00,74.8,49.5,29.85,WNW,288,9.0,16.0,41,0.00,,---,0.00,VWS V14.01,2013-03-16 17:45:00,
2013-03-16 13:50:00,75.3,49.3,29.84,WNW,297,4.0,9.0,40,0.00,,---,0.00,VWS V14.01,2013-03-16 17:50:00,
2013-03-16 13:56:00,76.0,49.3,29.84,SSW,197,2.0,13.0,39,0.00,,---,0.00,VWS V14.01,2013-03-16 17:56:00,
2013-03-16 14:01:00,76.2,50.8,29.84,NE,39,1.0,13.0,41,0.00,,---,0.00,VWS V14.01,2013-03-16 18:01:00,
2013-03-16 14:06:00,76.8,49.3,29.83,SSW,200,4.0,10.0,38,0.00,,---,0.00,VWS V14.01,2013-03-16 18:06:00,
2013-03-16 14:12:00,76.6,49.8,29.84,WNW,289,6.0,17.0,39,0.00,,---,0.00,VWS V14.01,2013-03-16 18:12:00,
2013-03-16 14:17:00,76.1,49.4,29.83,WNW,287,3.0,11.0,39,0.00,,---,0.00,VWS V14.01,2013-03-16 18:17:00,
2013-03-16 14:22:00,75.8,49.8,29.83,SE,138,2.0,11.0,40,0.00,,---,0.00,VWS V14.01,2013-03-16 18:22:00,
2013-03-16 14:27:00,76.4,49.6,29.83,WNW,300,7.0,11.0,39,0.00,,---,0.00,VWS V14.01,2013-03-16 18:27:00,
2013-03-16 14:32:00,76.8,49.3,29.82,West,277,6.0,10.0,38,0.00,,---,0.00,VWS V14.01,2013-03-16 18:32:00,
2013-03-16 14:37:00,77.2,48.9,29.82,South,185,8.0,12.0,37,0.00,,---,0.00,VWS V14.01,2013-03-16 18:37:00,
2013-03-16 14:43:00,77.6,48.6,29.82,South,189,4.0,12.0,36,0.00,,---,0.00,VWS V14.01,2013-03-16 18:43:00,
2013-03-16 14:48:00,77.7,49.4,29.82,WNW,303,14.0,14.0,37,0.00,,---,0.00,VWS V14.01,2013-03-16 18:48:00,
2013-03-16 14:53:00,77.2,49.7,29.81,WSW,238,2.0,17.0,38,0.00,,---,0.00,VWS V14.01,2013-03-16 18:53:00,
2013-03-16 14:58:00,77.5,49.2,29.81,SSW,203,7.0,17.0,37,0.00,,---,0.00,VWS V14.01,2013-03-16 18:58:00,
2013-03-16 15:04:00,77.4,50.5,29.81,ESE,112,3.0,11.0,39,0.00,,---,0.00,VWS V14.01,2013-03-16 19:04:00,
2013-03-16 15:09:00,78.0,49.7,29.81,WNW,303,1.0,15.0,37,0.00,,---,0.00,VWS V14.01,2013-03-16 19:09:00,
2013-03-16 15:14:00,78.3,48.4,29.80,West,281,5.0,15.0,35,0.00,,---,0.00,VWS V14.01,2013-03-16 19:14:00,
2013-03-16 15:20:00,78.2,49.1,29.80,West,262,7.0,11.0,36,0.00,,---,0.00,VWS V14.01,2013-03-16 19:20:00,
2013-03-16 15:25:00,78.1,48.2,29.80,West,266,9.0,11.0,35,0.00,,---,0.00,VWS V14.01,2013-03-16 19:25:00,
2013-03-16 15:30:00,77.6,47.8,29.80,WSW,252,9.0,12.0,35,0.00,,---,0.00,VWS V14.01,2013-03-16 19:30:00,
2013-03-16 15:35:00,77.4,49.1,29.80,SW,236,8.0,19.0,37,0.00,,---,0.00,VWS V14.01,2013-03-16 19:35:00,
2013-03-16 15:41:00,78.3,49.9,29.80,SSW,202,3.0,19.0,37,0.00,,---,0.00,VWS V14.01,2013-03-16 19:41:00,
2013-03-16 15:46:00,79.2,48.4,29.80,West,269,2.0,19.0,34,0.00,,---,0.00,VWS V14.01,2013-03-16 19:46:00,
2013-03-16 15:52:00,78.5,47.8,29.79,NNW,333,2.0,15.0,34,0.00,,---,0.00,VWS V14.01,2013-03-16 19:52:00,
2013-03-16 15:57:00,78.2,47.6,29.79,South,187,7.0,15.0,34,0.00,,---,0.00,VWS V14.01,2013-03-16 19:57:00,
2013-03-16 16:02:00,77.6,47.0,29.79,West,261,3.0,13.0,34,0.00,,---,0.00,VWS V14.01,2013-03-16 20:02:00,
2013-03-16 16:07:00,77.4,46.9,29.79,SSW,194,9.0,16.0,34,0.00,,---,0.00,VWS V14.01,2013-03-16 20:07:00,
2013-03-16 16:13:00,76.9,46.4,29.79,SE,129,2.0,16.0,34,0.00,,---,0.00,VWS V14.01,2013-03-16 20:13:00,
2013-03-16 16:18:00,77.0,47.3,29.79,SSE,163,6.0,16.0,35,0.00,,---,0.00,VWS V14.01,2013-03-16 20:18:00,
2013-03-16 16:23:00,76.7,47.0,29.79,SSW,194,4.0,16.0,35,0.00,,---,0.00,VWS V14.01,2013-03-16 20:23:00,
2013-03-16 16:29:00,76.7,47.0,29.79,WNW,289,8.0,16.0,35,0.00,,---,0.00,VWS V14.01,2013-03-16 20:29:00,
2013-03-16 16:34:00,76.6,46.9,29.79,SSW,207,4.0,11.0,35,0.00,,---,0.00,VWS V14.01,2013-03-16 20:34:00,
2013-03-16 16:39:00,76.6,46.9,29.78,SW,230,4.0,11.0,35,0.00,,---,0.00,VWS V14.01,2013-03-16 20:39:00,
2013-03-16 16:44:00,76.6,47.7,29.78,West,281,1.0,12.0,36,0.00,,---,0.00,VWS V14.01,2013-03-16 20:44:00,
2013-03-16 16:49:00,77.0,47.3,29.78,West,263,8.0,12.0,35,0.00,,---,0.00,VWS V14.01,2013-03-16 20:49:00,
2013-03-16 16:54:00,77.0,46.5,29.78,WNW,287,10.0,14.0,34,0.00,,---,0.00,VWS V14.01,2013-03-16 20:54:00,
2013-03-16 17:00:00,77.2,48.2,29.78,SSW,194,7.0,14.0,36,0.00,,---,0.00,VWS V14.01,2013-03-16 21:00:00,
2013-03-16 17:05:00,77.2,47.5,29.78,East,82,2.0,18.0,35,0.00,,---,0.00,VWS V14.01,2013-03-16 21:05:00,
2013-03-16 17:10:00,77.3,46.8,29.78,NW,309,3.0,18.0,34,0.00,,---,0.00,VWS V14.01,2013-03-16 21:10:00,
2013-03-16 17:15:00,77.3,46.8,29.78,WNW,292,10.0,18.0,34,0.00,,---,0.00,VWS V14.01,2013-03-16 21:15:00,
2013-03-16 17:20:00,77.3,46.0,29.78,West,267,13.0,19.0,33,0.00,,---,0.00,VWS V14.01,2013-03-16 21:20:00,
2013-03-16 17:25:00,77.1,46.6,29.78,NW,317,3.0,19.0,34,0.00,,---,0.00,VWS V14.01,2013-03-16 21:25:00,
2013-03-16 17:31:00,77.0,47.3,29.78,NNE,17,3.0,19.0,35,0.00,,---,0.00,VWS V14.01,2013-03-16 21:31:00,
2013-03-16 17:36:00,76.8,47.1,29.77,South,175,1.0,15.0,35,0.00,,---,0.00,VWS V14.01,2013-03-16 21:36:00,
2013-03-16 17:42:00,76.7,47.0,29.77,West,269,5.0,15.0,35,0.00,,---,0.00,VWS V14.01,2013-03-16 21:42:00,
2013-03-16 17:47:00,76.7,46.2,29.78,WSW,240,12.0,12.0,34,0.00,,---,0.00,VWS V14.01,2013-03-16 21:47:00,
2013-03-16 17:52:00,76.3,45.1,29.77,West,260,7.0,18.0,33,0.00,,---,0.00,VWS V14.01,2013-03-16 21:52:00,
2013-03-16 17:57:00,76.2,45.0,29.77,NE,47,6.0,18.0,33,0.00,,---,0.00,VWS V14.01,2013-03-16 21:57:00,
2013-03-16 18:03:00,76.1,44.1,29.78,NW,311,5.0,9.0,32,0.00,,---,0.00,VWS V14.01,2013-03-16 22:03:00,
2013-03-16 18:08:00,76.2,45.0,29.78,SSW,192,4.0,12.0,33,0.00,,---,0.00,VWS V14.01,2013-03-16 22:08:00,
2013-03-16 18:13:00,76.0,44.0,29.78,SSE,166,8.0,16.0,32,0.00,,---,0.00,VWS V14.01,2013-03-16 22:13:00,
2013-03-16 18:19:00,75.9,44.8,29.77,SSW,196,1.0,6.0,33,0.00,,---,0.00,VWS V14.01,2013-03-16 22:19:00,
2013-03-16 18:24:00,75.8,43.9,29.78,SE,128,2.0,23.0,32,0.00,,---,0.00,VWS V14.01,2013-03-16 22:24:00,
2013-03-16 18:29:00,75.4,43.5,29.77,WSW,254,4.0,23.0,32,0.00,,---,0.00,VWS V14.01,2013-03-16 22:29:00,
2013-03-16 18:34:00,75.2,43.3,29.78,NNW,332,4.0,14.0,32,0.00,,---,0.00,VWS V14.01,2013-03-16 22:34:00,
2013-03-16 18:39:00,74.9,43.1,29.77,SSE,153,5.0,15.0,32,0.00,,---,0.00,VWS V14.01,2013-03-16 22:39:00,
2013-03-16 18:44:00,74.8,43.8,29.78,WNW,296,4.0,15.0,33,0.00,,---,0.00,VWS V14.01,2013-03-16 22:44:00,
2013-03-16 18:49:00,74.6,42.8,29.78,South,178,2.0,15.0,32,0.00,,---,0.00,VWS V14.01,2013-03-16 22:49:00,
2013-03-16 18:54:00,74.4,42.7,29.78,SSW,212,8.0,15.0,32,0.00,,---,0.00,VWS V14.01,2013-03-16 22:54:00,
2013-03-16 19:00:00,74.1,42.4,29.78,WNW,283,3.0,15.0,32,0.00,,---,0.00,VWS V14.01,2013-03-16 23:00:00,
2013-03-16 19:05:00,73.8,42.9,29.79,NNW,336,5.0,13.0,33,0.00,,---,0.00,VWS V14.01,2013-03-16 23:05:00,
2013-03-16 19:10:00,73.5,42.7,29.79,SSW,202,2.0,13.0,33,0.00,,---,0.00,VWS V14.01,2013-03-16 23:10:00,
2013-03-16 19:16:00,73.3,41.7,29.80,SSW,199,3.0,13.0,32,0.00,,---,0.00,VWS V14.01,2013-03-16 23:16:00,
2013-03-16 19:21:00,72.9,42.1,29.80,SE,143,3.0,12.0,33,0.00,,---,0.00,VWS V14.01,2013-03-16 23:21:00,
2013-03-16 19:26:00,72.8,42.0,29.80,WNW,287,0.0,12.0,33,0.00,,---,0.00,VWS V14.01,2013-03-16 23:26:00,
2013-03-16 19:31:00,72.6,41.9,29.80,WNW,298,5.0,6.0,33,0.00,,---,0.00,VWS V14.01,2013-03-16 23:31:00,
2013-03-16 19:37:00,72.4,41.7,29.80,NE,40,3.0,11.0,33,0.00,,---,0.00,VWS V14.01,2013-03-16 23:37:00,
2013-03-16 19:42:00,72.0,42.1,29.81,SSW,196,3.0,11.0,34,0.00,,---,0.00,VWS V14.01,2013-03-16 23:42:00,
2013-03-16 19:47:00,71.7,42.6,29.81,West,268,1.0,6.0,35,0.00,,---,0.00,VWS V14.01,2013-03-16 23:47:00,
2013-03-16 19:52:00,71.3,42.3,29.82,SSW,199,0.0,6.0,35,0.00,,---,0.00,VWS V14.01,2013-03-16 23:52:00,
2013-03-16 19:57:00,71.1,42.1,29.82,SSE,161,4.0,7.0,35,0.00,,---,0.00,VWS V14.01,2013-03-16 23:57:00,
2013-03-16 20:03:00,71.1,42.1,29.82,West,259,0.0,7.0,35,0.00,,---,0.00,VWS V14.01,2013-03-17 00:03:00,
2013-03-16 20:08:00,70.9,41.9,29.83,NNE,30,0.0,8.0,35,0.00,,---,0.00,VWS V14.01,2013-03-17 00:08:00,
2013-03-16 20:13:00,70.7,41.7,29.83,NW,322,1.0,8.0,35,0.00,,---,0.00,VWS V14.01,2013-03-17 00:13:00,
2013-03-16 20:18:00,70.7,41.0,29.83,NNW,339,0.0,7.0,34,0.00,,---,0.00,VWS V14.01,2013-03-17 00:18:00,
2013-03-16 20:24:00,70.6,41.7,29.83,WSW,257,1.0,7.0,35,0.00,,---,0.00,VWS V14.01,2013-03-17 00:24:00,
2013-03-16 20:29:00,70.6,40.9,29.83,NW,325,2.0,7.0,34,0.00,,---,0.00,VWS V14.01,2013-03-17 00:29:00,
2013-03-16 20:34:00,70.7,41.0,29.83,West,277,2.0,7.0,34,0.00,,---,0.00,VWS V14.01,2013-03-17 00:34:00,
2013-03-16 20:40:00,70.6,40.9,29.83,NW,312,1.0,9.0,34,0.00,,---,0.00,VWS V14.01,2013-03-17 00:40:00,
2013-03-16 20:45:00,70.7,41.0,29.83,SW,215,3.0,9.0,34,0.00,,---,0.00,VWS V14.01,2013-03-17 00:45:00,
2013-03-16 20:50:00,70.5,40.0,29.84,NNE,31,2.0,5.0,33,0.00,,---,0.00,VWS V14.01,2013-03-17 00:50:00,
2013-03-16 20:56:00,70.2,40.5,29.84,SW,227,1.0,9.0,34,0.00,,---,0.00,VWS V14.01,2013-03-17 00:56:00,
2013-03-16 21:01:00,69.9,40.3,29.84,ESE,102,2.0,9.0,34,0.00,,---,0.00,VWS V14.01,2013-03-17 01:01:00,
2013-03-16 21:07:00,69.9,40.3,29.85,SW,234,1.0,11.0,34,0.00,,---,0.00,VWS V14.01,2013-03-17 01:07:00,
2013-03-16 21:12:00,69.8,40.2,29.85,West,260,0.0,11.0,34,0.00,,---,0.00,VWS V14.01,2013-03-17 01:12:00,
2013-03-16 21:17:00,69.7,40.1,29.86,SW,234,2.0,11.0,34,0.00,,---,0.00,VWS V14.01,2013-03-17 01:17:00,
2013-03-16 21:23:00,69.6,40.0,29.86,NNW,329,3.0,11.0,34,0.00,,---,0.00,VWS V14.01,2013-03-17 01:23:00,
2013-03-16 21:28:00,69.6,40.0,29.86,WNW,290,2.0,11.0,34,0.00,,---,0.00,VWS V14.01,2013-03-17 01:28:00,
2013-03-16 21:33:00,69.4,39.8,29.86,SSW,205,2.0,11.0,34,0.00,,---,0.00,VWS V14.01,2013-03-17 01:33:00,
2013-03-16 21:38:00,69.3,40.5,29.86,WNW,285,5.0,11.0,35,0.00,,---,0.00,VWS V14.01,2013-03-17 01:38:00,
2013-03-16 21:43:00,69.0,40.2,29.87,SE,144,2.0,11.0,35,0.00,,---,0.00,VWS V14.01,2013-03-17 01:43:00,
2013-03-16 21:48:00,69.0,40.2,29.87,ESE,122,0.0,5.0,35,0.00,,---,0.00,VWS V14.01,2013-03-17 01:48:00,
2013-03-16 21:54:00,68.8,40.1,29.87,West,263,2.0,7.0,35,0.00,,---,0.00,VWS V14.01,2013-03-17 01:54:00,
2013-03-16 21:59:00,68.7,40.0,29.87,WSW,238,1.0,9.0,35,0.00,,---,0.00,VWS V14.01,2013-03-17 01:59:00,
2013-03-16 22:04:00,68.6,39.9,29.87,WNW,290,2.0,9.0,35,0.00,,---,0.00,VWS V14.01,2013-03-17 02:04:00,
2013-03-16 22:09:00,68.5,39.8,29.88,WNW,284,4.0,10.0,35,0.00,,---,0.00,VWS V14.01,2013-03-17 02:09:00,
2013-03-16 22:14:00,68.4,39.7,29.88,WSW,256,3.0,10.0,35,0.00,,---,0.00,VWS V14.01,2013-03-17 02:14:00,
2013-03-16 22:20:00,68.3,39.6,29.88,WNW,296,3.0,8.0,35,0.00,,---,0.00,VWS V14.01,2013-03-17 02:20:00,
2013-03-16 22:25:00,68.2,40.2,29.88,NW,309,2.0,8.0,36,0.00,,---,0.00,VWS V14.01,2013-03-17 02:25:00,
2013-03-16 22:30:00,68.1,40.2,29.88,SSW,201,1.0,8.0,36,0.00,,---,0.00,VWS V14.01,2013-03-17 02:30:00,
2013-03-16 22:35:00,67.9,40.0,29.89,WSW,256,3.0,6.0,36,0.00,,---,0.00,VWS V14.01,2013-03-17 02:35:00,
2013-03-16 22:41:00,67.4,39.5,29.89,West,270,0.0,7.0,36,0.00,,---,0.00,VWS V14.01,2013-03-17 02:41:00,
2013-03-16 22:47:00,67.2,40.1,29.89,West,265,1.0,4.0,37,0.00,,---,0.00,VWS V14.01,2013-03-17 02:47:00,
2013-03-16 22:52:00,67.0,39.9,29.89,SSW,193,0.0,6.0,37,0.00,,---,0.00,VWS V14.01,2013-03-17 02:52:00,
2013-03-16 22:57:00,67.1,40.0,29.89,SW,236,1.0,6.0,37,0.00,,---,0.00,VWS V14.01,2013-03-17 02:57:00,
2013-03-16 23:02:00,67.0,39.9,29.89,West,267,1.0,3.0,37,0.00,,---,0.00,VWS V14.01,2013-03-17 03:02:00,
2013-03-16 23:08:00,66.8,39.7,29.89,NW,307,1.0,8.0,37,0.00,,---,0.00,VWS V14.01,2013-03-17 03:08:00,
2013-03-16 23:13:00,66.6,40.2,29.89,West,277,1.0,8.0,38,0.00,,---,0.00,VWS V14.01,2013-03-17 03:13:00,
2013-03-16 23:18:00,66.4,40.0,29.90,SE,145,2.0,5.0,38,0.00,,---,0.00,VWS V14.01,2013-03-17 03:18:00,
2013-03-16 23:23:00,66.2,39.9,29.90,WNW,298,4.0,5.0,38,0.00,,---,0.00,VWS V14.01,2013-03-17 03:23:00,
2013-03-16 23:29:00,65.8,39.5,29.90,ESE,118,1.0,5.0,38,0.00,,---,0.00,VWS V14.01,2013-03-17 03:29:00,
2013-03-16 23:34:00,65.6,40.0,29.90,WNW,288,1.0,4.0,39,0.00,,---,0.00,VWS V14.01,2013-03-17 03:34:00,
2013-03-16 23:39:00,65.1,40.2,29.90,WNW,290,0.0,4.0,40,0.00,,---,0.00,VWS V14.01,2013-03-17 03:39:00,
2013-03-16 23:44:00,65.0,40.1,29.90,WNW,284,0.0,4.0,40,0.00,,---,0.00,VWS V14.01,2013-03-17 03:44:00,
2013-03-16 23:49:00,64.8,39.9,29.90,WSW,257,0.0,5.0,40,0.00,,---,0.00,VWS V14.01,2013-03-17 03:49:00,
2013-03-16 23:55:00,64.5,39.7,29.90,SW,232,3.0,5.0,40,0.00,,---,0.00,VWS V14.01,2013-03-17 03:55:00,